When you browse on this site, cookies collect data to enhance your experience and personalize the content and advertising you see.
Visit our Privacy Policy to learn more. By continuing to use the site, you agree to this use of cookies and data.
  • In Hungary
  • List of Countries
  • For 7 days
  • Water Temperature
  • Weather Map
  • News
  • Weather Widgets
  • user-avatar
    Login

    Hourly Weather Polyaki

    Today, 6 April, Monday

    Time Temperature Precipitation Wind Pressure Humidity
    00:00 +2°C° 0 mm 1 mps 763 mmHg 69%
    01:00 +2°C° 0 mm 1 mps 763 mmHg 74%
    02:00 +2°C° 0 mm 1 mps 763 mmHg 85%
    03:00 +2°C° 0 mm 1 mps 763 mmHg 87%
    04:00 +2°C° 0 mm 2 mps 763 mmHg 90%
    05:00 +2°C° 0 mm 2 mps 763 mmHg 92%
    06:00 +3°C° 0 mm 2 mps 763 mmHg 88%
    07:00 +3°C° 0 mm 3 mps 763 mmHg 84%
    08:00 +4°C° 0 mm 3 mps 763 mmHg 80%
    09:00 +7°C° 0 mm 3 mps 763 mmHg 73%
    10:00 +8°C° 0 mm 3 mps 763 mmHg 65%
    11:00 +10°C° 0 mm 4 mps 763 mmHg 58%
    12:00 +10°C° 0 mm 4 mps 763 mmHg 54%
    13:00 +11°C° 0 mm 4 mps 763 mmHg 51%
    14:00 +12°C° 0 mm 4 mps 763 mmHg 47%
    15:00 +12°C° 0 mm 3 mps 763 mmHg 48%
    16:00 +12°C° 0 mm 3 mps 763 mmHg 48%
    17:00 +12°C° 0 mm 3 mps 763 mmHg 48%
    18:00 +10°C° 0 mm 2 mps 763 mmHg 54%
    19:00 +9°C° 0 mm 2 mps 762 mmHg 60%
    20:00 +8°C° 0 mm 1 mps 762 mmHg 65%
    21:00 +8°C° 0 mm 1 mps 763 mmHg 66%
    22:00 +7°C° 0 mm 1 mps 763 mmHg 67%
    23:00 +7°C° 0 mm 1 mps 763 mmHg 68%

    Tomorrow, 7 April, Tuesday

    Time Temperature Precipitation Wind Pressure Humidity
    00:00 +6°C° 0 mm 1 mps 763 mmHg 70%
    01:00 +5°C° 0 mm 2 mps 763 mmHg 72%
    02:00 +4°C° 0 mm 2 mps 763 mmHg 74%
    03:00 +4°C° 0 mm 2 mps 763 mmHg 74%
    04:00 +4°C° 0 mm 2 mps 762 mmHg 74%
    05:00 +2°C° 0 mm 3 mps 762 mmHg 74%
    06:00 +4°C° 0 mm 3 mps 762 mmHg 69%
    07:00 +5°C° 0 mm 4 mps 762 mmHg 64%
    08:00 +6°C° 0 mm 4 mps 761 mmHg 59%
    09:00 +8°C° 0 mm 5 mps 761 mmHg 54%
    10:00 +10°C° 0 mm 5 mps 761 mmHg 48%
    11:00 +13°C° 0 mm 6 mps 760 mmHg 43%
    12:00 +14°C° 0 mm 6 mps 760 mmHg 43%
    13:00 +14°C° 0 mm 6 mps 759 mmHg 43%
    14:00 +15°C° 0 mm 6 mps 759 mmHg 43%
    15:00 +15°C° 0 mm 6 mps 758 mmHg 45%
    16:00 +15°C° 0 mm 6 mps 758 mmHg 48%
    17:00 +15°C° 0 mm 5 mps 757 mmHg 50%
    18:00 +14°C° 0 mm 5 mps 757 mmHg 55%
    19:00 +12°C° 0 mm 5 mps 756 mmHg 59%
    20:00 +11°C° 0 mm 4 mps 756 mmHg 64%
    21:00 +10°C° 0 mm 5 mps 756 mmHg 68%
    22:00 +9°C° 0 mm 5 mps 756 mmHg 71%
    23:00 +9°C° 0 mm 5 mps 756 mmHg 75%

    Day after tomorrow, 8 April, Wednesday

    Time Temperature Precipitation Wind Pressure Humidity
    00:00 +8°C° 0 mm 4 mps 756 mmHg 79%
    01:00 +7°C° 0 mm 4 mps 756 mmHg 83%
    02:00 +6°C° 0 mm 4 mps 757 mmHg 88%
    03:00 +6°C° 0 mm 4 mps 757 mmHg 89%
    04:00 +5°C° 0 mm 4 mps 757 mmHg 90%
    05:00 +4°C° 0 mm 4 mps 758 mmHg 91%
    06:00 +5°C° 0 mm 3 mps 758 mmHg 87%
    07:00 +5°C° 0 mm 3 mps 758 mmHg 83%
    08:00 +5°C° 0 mm 3 mps 758 mmHg 78%
    09:00 +7°C° 0 mm 3 mps 758 mmHg 71%
    10:00 +9°C° 0 mm 3 mps 758 mmHg 63%
    11:00 +10°C° 0 mm 2 mps 758 mmHg 56%
    12:00 +12°C° 0 mm 2 mps 758 mmHg 51%
    13:00 +13°C° 0 mm 2 mps 758 mmHg 46%
    14:00 +14°C° 0 mm 2 mps 757 mmHg 41%
    15:00 +14°C° 0 mm 2 mps 757 mmHg 41%
    16:00 +14°C° 0 mm 2 mps 757 mmHg 42%
    17:00 +14°C° 0 mm 2 mps 756 mmHg 42%
    18:00 +13°C° 0 mm 2 mps 756 mmHg 47%
    19:00 +11°C° 0 mm 1 mps 755 mmHg 52%
    20:00 +9°C° 0 mm 1 mps 755 mmHg 57%
    21:00 +9°C° 0 mm 1 mps 755 mmHg 60%
    22:00 +7°C° 0 mm 2 mps 754 mmHg 63%
    23:00 +7°C° 0 mm 2 mps 754 mmHg 66%

    9 April, Thursday

    Time Temperature Precipitation Wind Pressure Humidity
    00:00 +6°C° 0 mm 2 mps 754 mmHg 69%
    01:00 +6°C° 0 mm 2 mps 753 mmHg 73%
    02:00 +6°C° 0 mm 2 mps 753 mmHg 76%
    03:00 +5°C° 0 mm 3 mps 752 mmHg 78%
    04:00 +5°C° 0 mm 3 mps 752 mmHg 80%
    05:00 +4°C° 0 mm 3 mps 751 mmHg 83%
    06:00 +5°C° 0 mm 3 mps 751 mmHg 79%
    07:00 +7°C° 0 mm 3 mps 750 mmHg 75%
    08:00 +7°C° 0 mm 4 mps 750 mmHg 71%
    09:00 +10°C° 0 mm 4 mps 749 mmHg 68%
    10:00 +11°C° 0 mm 4 mps 749 mmHg 65%
    11:00 +12°C° 0 mm 5 mps 748 mmHg 62%
    12:00 +12°C° 0.3 mm 5 mps 747 mmHg 65%
    13:00 +13°C° 0.3 mm 5 mps 747 mmHg 68%
    14:00 +13°C° 0.3 mm 5 mps 746 mmHg 71%
    15:00 +12°C° 0.5 mm 5 mps 746 mmHg 74%
    16:00 +12°C° 0.5 mm 5 mps 745 mmHg 78%
    17:00 +11°C° 0.5 mm 4 mps 745 mmHg 81%
    18:00 +10°C° 0.1 mm 4 mps 745 mmHg 81%
    19:00 +9°C° 0.1 mm 5 mps 745 mmHg 80%
    20:00 +8°C° 0.1 mm 5 mps 745 mmHg 79%
    21:00 +7°C° 0 mm 5 mps 745 mmHg 81%
    22:00 +6°C° 0 mm 4 mps 745 mmHg 83%
    23:00 +5°C° 0 mm 4 mps 745 mmHg 85%

    10 April, Friday

    Time Temperature Precipitation Wind Pressure Humidity
    00:00 +5°C° 0 mm 4 mps 746 mmHg 86%
    01:00 +4°C° 0 mm 4 mps 746 mmHg 86%
    02:00 +4°C° 0 mm 4 mps 746 mmHg 87%
    03:00 +3°C° 0 mm 4 mps 746 mmHg 85%
    04:00 +1°C° 0 mm 4 mps 747 mmHg 84%
    05:00 +1°C° 0 mm 4 mps 747 mmHg 82%
    06:00 +1°C° 0 mm 4 mps 748 mmHg 80%
    07:00 +3°C° 0 mm 4 mps 748 mmHg 78%
    08:00 +3°C° 0 mm 4 mps 749 mmHg 76%
    09:00 +3°C° 0 mm 5 mps 749 mmHg 68%
    10:00 +6°C° 0 mm 5 mps 749 mmHg 61%
    11:00 +7°C° 0 mm 5 mps 749 mmHg 54%
    12:00 +7°C° 0.3 mm 6 mps 749 mmHg 53%
    13:00 +8°C° 0.3 mm 7 mps 749 mmHg 53%
    14:00 +8°C° 0.3 mm 7 mps 749 mmHg 52%
    15:00 +8°C° 0 mm 7 mps 749 mmHg 48%
    16:00 +6°C° 0 mm 7 mps 749 mmHg 45%
    17:00 +6°C° 0 mm 7 mps 749 mmHg 41%
    18:00 +4°C° 0 mm 6 mps 750 mmHg 45%
    19:00 +3°C° 0 mm 5 mps 750 mmHg 50%
    20:00 +1°C° 0 mm 4 mps 750 mmHg 55%
    21:00 0°C° 0 mm 4 mps 751 mmHg 59%
    22:00 0°C° 0 mm 3 mps 751 mmHg 63%
    23:00 0°C° 0 mm 3 mps 751 mmHg 67%

    11 April, Saturday

    Time Temperature Precipitation Wind Pressure Humidity
    00:00 -1°C° 0 mm 3 mps 752 mmHg 71%
    01:00 -1°C° 0 mm 3 mps 752 mmHg 74%
    02:00 -2°C° 0 mm 3 mps 752 mmHg 78%
    03:00 -2°C° 0 mm 3 mps 752 mmHg 78%
    04:00 -2°C° 0 mm 3 mps 753 mmHg 79%
    05:00 -3°C° 0 mm 2 mps 753 mmHg 79%
    06:00 -2°C° 0 mm 2 mps 753 mmHg 72%
    07:00 -1°C° 0 mm 2 mps 753 mmHg 64%
    08:00 +2°C° 0 mm 2 mps 754 mmHg 57%
    09:00 +3°C° 0 mm 2 mps 754 mmHg 51%
    10:00 +4°C° 0 mm 2 mps 754 mmHg 44%
    11:00 +6°C° 0 mm 2 mps 754 mmHg 38%
    12:00 +6°C° 0 mm 2 mps 754 mmHg 35%
    13:00 +7°C° 0 mm 2 mps 754 mmHg 33%
    14:00 +8°C° 0 mm 2 mps 754 mmHg 31%
    15:00 +8°C° 0 mm 2 mps 754 mmHg 31%
    16:00 +8°C° 0 mm 2 mps 754 mmHg 32%
    17:00 +8°C° 0 mm 2 mps 753 mmHg 33%
    18:00 +6°C° 0 mm 2 mps 754 mmHg 38%
    19:00 +6°C° 0 mm 1 mps 754 mmHg 43%
    20:00 +4°C° 0 mm 1 mps 754 mmHg 48%
    21:00 +4°C° 0 mm 1 mps 755 mmHg 50%
    22:00 +2°C° 0 mm 0 mps 755 mmHg 52%
    23:00 +2°C° 0 mm 0 mps 755 mmHg 54%
    Show more